Location: Colossi of Memnon
(25.7167°N, 32.6167°E)
Time: 12:29:11
(UTC+00:00)

USA 234 - Pass Details

Date: 05 March 2021
Orbit: 1102 x 1105 km, 123.0° (Epoch: 08 April)

Event Time Altitude Azimuth Distance (km) Brightness Sun altitude
Rises 03:17:20 0° 171° (S) 3,905 6.3 -12.4°
Reaches altitude 10° 03:20:18 10° 183° (S) 2,950 5.5 -11.8°
Maximum altitude 03:25:29 25° 237° (WSW) 2,036 4.2 -10.6°
Drops below altitude 10° 03:30:42 10° 290° (WNW) 2,956 4.9 -9.4°
Enters shadow 03:30:58 - 292° (WNW) 3,038 5.0 -9.4°
